This is the latest recevied weather packets stored in our database for station/object M0TJX-1. If no packets are shown the sender has not sent any weather packets the latest 10 day(s).
| Time | Temp. | Humidity | Pressure | Rain* | Wind** | Luminosity | Snow |
|---|---|---|---|---|---|---|---|
| 1787955020 | 17.22° C | 91% | 1008.1 hPa | 0 mm | - | - | - |
| 1787954120 | 17.22° C | 91% | 1008 hPa | 0 mm | - | - | - |
| 1787953221 | 17.22° C | 92% | 1008 hPa | 0 mm | - | - | - |
| 1787952321 | 17.22° C | 92% | 1008 hPa | 0 mm | - | - | - |
| 1787951421 | 17.22° C | 92% | 1007.9 hPa | 0 mm | - | - | - |
| 1787950521 | 17.22° C | 92% | 1007.9 hPa | 0 mm | - | - | - |
| 1787949621 | 17.22° C | 92% | 1007.9 hPa | 0 mm | - | - | - |
| 1787948721 | 17.22° C | 92% | 1007.7 hPa | 0 mm | - | - | - |
| 1787947821 | 17.22° C | 92% | 1007.6 hPa | 0 mm | - | - | - |
| 1787946921 | 17.22° C | 92% | 1007.6 hPa | 0 mm | - | - | - |
| 1787946021 | 17.22° C | 91% | 1007.6 hPa | 0 mm | - | - | - |
| 1787945121 | 17.22° C | 91% | 1007.6 hPa | 0 mm | - | - | - |
| 1787944221 | 17.22° C | 91% | 1007.4 hPa | 0 mm | - | - | - |
| 1787943321 | 17.22° C | 90% | 1007.3 hPa | 0 mm | - | - | - |
| 1787942421 | 17.22° C | 89% | 1007.2 hPa | 0 mm | - | - | - |
| 1787941521 | 17.22° C | 89% | 1007 hPa | 0 mm | - | - | - |
| 1787940621 | 17.22° C | 88% | 1006.9 hPa | 0 mm | - | - | - |
| 1787939721 | 17.22° C | 88% | 1007 hPa | 0 mm | - | - | - |
| 1787938821 | 17.22° C | 87% | 1007.1 hPa | 0 mm | - | - | - |
| 1787937921 | 16.67° C | 89% | 1007 hPa | 0 mm | - | - | - |
| 1787937021 | 16.67° C | 89% | 1006.8 hPa | 0 mm | - | - | - |
| 1787936121 | 16.67° C | 89% | 1007 hPa | 0 mm | - | - | - |
| 1787935221 | 17.22° C | 88% | 1007.1 hPa | 0 mm | - | - | - |
| 1787934321 | 17.78° C | 84% | 1007.1 hPa | 0 mm | - | - | - |
| 1787933421 | 19.44° C | 73% | 1007 hPa | 0 mm | - | - | - |
* Rain latest hour (hover to see other rain measurements)
** Current wind speed in m/s (hover to see current wind gust speed)